Back to catalog

STARLINK-11520

AliveCommunicationsVLEO
NORAD 62834·PAYLOAD·🇺🇸 United States

Launched Jan 27, 2025 from Cape Canaveral Space Force Station

Loading…

Next Passes (next 24 hours)

TLE

FreshSource: CelesTrak SupGP

Epoch: Sep 15, 2026, 02:32 UTC

1 62834C 25019F   26258.10604167 -.00047269  00000+0 -36699-3 0  2581
2 62834  43.0007 244.0227 0001508 265.3459  89.3397 15.70872123    14

Track STARLINK-11520 in real time with AllMySat

Download on the App Store